Weather History for Middletown, PA

Change the Weather History Date:

Monday, March 25, 2013

  Actual Average Record
Temperature  
Mean Temperature 36 °F 45 °F  
Max Temperature 39 °F 54 °F 81 °F (1939)
Min Temperature 32 °F 36 °F 16 °F (1940)
Degree Days  
Heating Degree Days 29 20  
Month to date heating degree days 677 608  
Since 1 July heating degree days 4468 4596  
Cooling Degree Days 0 0  
Month to date cooling degree days 0 0  
Year to date cooling degree days 0 0  
Moisture  
Dew Point 30 °F    
Average Humidity 75    
Maximum Humidity 96    
Minimum Humidity 54    
Precipitation  
Precipitation 0.38 in 0.11 in 0.96 in (1930)
Month to date precipitation 2.33 2.67  
Year to date precipitation 7.28 7.94  
Snow  
Snow 1.40 in - - ()
Month to date snowfall 3.7  
Since 1 July snowfall 17.0  
Snow Depth 1.00 in    
Sea Level Pressure  
Sea Level Pressure 29.57 in    
Wind  
Wind Speed 5 mph (NE)    
Max Wind Speed 13 mph    
Max Gust Speed 17 mph    
Visibility 4 miles    
Events Fog , Rain , Snow    
T = Trace of Precipitation, MM = Missing Value Source: NWS Daily Summary

Daily Weather History Graph

Daily Weather History Graph

Search for Another Location

Airport:

Trip Planner

Search our weather history database for the weather conditions in past years. The results will help you decide how hot, cold, wet, or windy it might be!

Date:

Astronomy

Mar. 25, 2013 Rise Set
Actual Time 7:01 AM EDT 7:24 PM EDT
Civil Twilight 6:34 AM EDT 7:51 PM EDT
Nautical Twilight 6:02 AM EDT 8:23 PM EDT
Astronomical Twilight 5:30 AM EDT 8:56 PM EDT
Moon 5:53 PM EDT (3/25) 5:44 AM EDT (3/25)
Length of Visible Light 13h 16m
Length of Day
12h 22m
Waxing Gibbous, 96% of the Moon is Illuminated
Mar 25
Waxing Gibbous
Mar 27
Full
Apr 3
Last Quarter
Apr 10
New
Apr 18
First Quarter

Hourly Weather History & Observations

Time (EDT) Temp. Windchill Dew Point Humidity Pressure Visibility Wind Dir Wind Speed Gust Speed Precip Events Conditions
12:56 AM 39.0 °F 32.8 °F 25.0 °F 57% 29.65 in 10.0 mi SSE 9.2 mph - N/A   Overcast
1:56 AM 37.0 °F 30.4 °F 27.0 °F 67% 29.62 in 10.0 mi SE 9.2 mph - N/A   Overcast
2:56 AM 37.0 °F 31.6 °F 25.0 °F 62% 29.59 in 10.0 mi East 6.9 mph - N/A   Overcast
3:56 AM 37.0 °F 34.5 °F 25.0 °F 62% 29.58 in 10.0 mi East 3.5 mph - N/A   Overcast
4:56 AM 36.0 °F 31.1 °F 26.1 °F 67% 29.61 in 10.0 mi WNW 5.8 mph - 0.00 in Snow Light Snow
5:18 AM 35.6 °F 32.8 °F 28.4 °F 75% 29.60 in 2.0 mi Variable 3.5 mph - 0.00 in Snow Light Snow
5:27 AM 33.8 °F - 28.4 °F 81% 29.60 in 1.5 mi Calm Calm - 0.00 in Snow Light Snow
5:37 AM 33.8 °F - 28.4 °F 81% 29.59 in 1.2 mi Calm Calm - 0.00 in Snow Light Snow
5:56 AM 32.0 °F - 30.0 °F 92% 29.59 in 1.2 mi Calm Calm - 0.01 in Snow Light Snow
6:18 AM 32.0 °F - 30.2 °F 93% 29.58 in 0.8 mi Calm Calm - 0.02 in Snow Light Snow
6:24 AM 32.0 °F - 30.2 °F 93% 29.58 in 0.5 mi Calm Calm - N/A Snow Light Snow
6:56 AM 32.0 °F - 30.9 °F 96% 29.58 in 0.5 mi Calm Calm - 0.09 in Fog , Snow Snow
7:56 AM 32.0 °F - 30.9 °F 96% 29.58 in 0.2 mi Calm Calm - 0.07 in Fog , Snow Snow
8:56 AM 32.0 °F - 30.9 °F 96% 29.58 in 0.5 mi Calm Calm - 0.07 in Fog , Snow Snow
9:33 AM 32.0 °F 25.6 °F 30.2 °F 93% 29.56 in 0.8 mi East 6.9 mph - 0.02 in Snow Light Snow
9:48 AM 33.8 °F 28.6 °F 30.2 °F 87% 29.55 in 1.0 mi ENE 5.8 mph - 0.02 in Snow Light Snow
9:56 AM 33.1 °F 26.9 °F 30.0 °F 89% 29.56 in 1.0 mi ENE 6.9 mph - 0.03 in Snow Light Snow
10:56 AM 33.1 °F 26.1 °F 30.0 °F 89% 29.55 in 1.8 mi East 8.1 mph - 0.00 in Snow Light Snow
11:05 AM 33.8 °F 28.6 °F 30.2 °F 87% 29.53 in 2.0 mi ENE 5.8 mph - 0.01 in Snow Light Snow
11:49 AM 33.8 °F 27.0 °F 30.2 °F 87% 29.53 in 1.5 mi East 8.1 mph - 0.01 in Snow Light Snow
11:56 AM 34.0 °F 28.8 °F 30.9 °F 89% 29.54 in 1.0 mi East 5.8 mph - 0.01 in Snow Light Snow
12:29 PM 33.8 °F 28.6 °F 30.2 °F 87% 29.53 in 2.0 mi ENE 5.8 mph - 0.01 in Snow Light Snow
12:38 PM 33.8 °F 27.7 °F 30.2 °F 87% 29.53 in 2.0 mi East 6.9 mph - 0.01 in Snow Light Snow
12:46 PM 33.8 °F 27.7 °F 30.2 °F 87% 29.53 in 1.2 mi ENE 6.9 mph - 0.02 in Snow Light Snow
12:56 PM 34.0 °F 31.0 °F 30.9 °F 89% 29.54 in 1.5 mi NE 3.5 mph - 0.02 in Snow Light Snow
1:11 PM 33.8 °F 30.8 °F 30.2 °F 87% 29.53 in 0.8 mi ENE 3.5 mph - 0.01 in Snow Light Snow
1:24 PM 33.8 °F 30.8 °F 32.0 °F 93% 29.53 in 1.0 mi NNE 3.5 mph - 0.02 in Snow Light Snow
1:27 PM 33.8 °F 27.7 °F 32.0 °F 93% 29.53 in 1.0 mi Variable 6.9 mph - 0.02 in Snow Light Snow
1:40 PM 33.8 °F 30.8 °F 30.2 °F 87% 29.53 in 1.0 mi North 3.5 mph - 0.03 in Snow Light Snow
1:56 PM 33.1 °F 30.0 °F 32.0 °F 96% 29.55 in 1.0 mi North 3.5 mph - 0.04 in Snow Light Snow
2:56 PM 34.0 °F 28.0 °F 32.0 °F 92% 29.54 in 1.0 mi NE 6.9 mph - 0.03 in Snow Light Snow
3:09 PM 33.8 °F 28.6 °F 32.0 °F 93% 29.53 in 2.0 mi Variable 5.8 mph - 0.01 in Snow Light Snow
3:26 PM 35.6 °F 30.7 °F 32.0 °F 87% 29.53 in 2.0 mi NNE 5.8 mph - 0.01 in Rain Light Rain
3:35 PM 35.6 °F 31.7 °F 32.0 °F 87% 29.53 in 2.0 mi Variable 4.6 mph - 0.01 in Rain Light Rain
3:56 PM 35.1 °F - 32.0 °F 89% 29.55 in 4.0 mi Calm Calm - 0.01 in Rain , Snow Light Rain
4:56 PM 35.1 °F - 32.0 °F 89% 29.56 in 10.0 mi Calm Calm - 0.00 in Rain , Snow Light Rain
5:17 PM 35.6 °F - 30.2 °F 81% 29.55 in 10.0 mi Calm Calm - 0.00 in   Overcast
5:56 PM 35.1 °F 31.0 °F 30.9 °F 85% 29.57 in 10.0 mi WNW 4.6 mph - 0.00 in Rain Light Rain
6:24 PM 35.6 °F 30.7 °F 30.2 °F 81% 29.57 in 10.0 mi WNW 5.8 mph - 0.00 in Rain Light Rain
6:56 PM 35.1 °F 29.3 °F 32.0 °F 89% 29.60 in 10.0 mi NW 6.9 mph - 0.00 in Rain Light Rain
7:56 PM 35.1 °F 27.9 °F 32.0 °F 89% 29.63 in 10.0 mi WNW 9.2 mph - 0.00 in   Overcast
8:56 PM 35.1 °F 28.6 °F 32.0 °F 89% 29.65 in 10.0 mi WNW 8.1 mph - 0.00 in   Overcast
9:56 PM 34.0 °F 26.0 °F 32.0 °F 92% 29.66 in 9.0 mi NW 10.4 mph - N/A   Overcast
10:56 PM 34.0 °F 26.6 °F 32.0 °F 92% 29.68 in 6.0 mi WNW 9.2 mph - 0.00 in Rain Light Rain
11:56 PM 34.0 °F 25.5 °F 32.0 °F 92% 29.68 in 7.0 mi NW 11.5 mph - 0.00 in Rain Light Rain